| time (UTC) | temp C | wind direction | speed KPH | gust KPH | rain 1hr cm | rain 24hr cm | rain mn cm | humidity % | barometer mb |
| 20260506084543 | 17 | 77 | 0.0 | 0.0 | 0.00 | 0.00 | 0.00 | 100 | 1018.1 |
| 20260506084504 | 17 | 77 | 0.0 | 0.0 | 0.00 | 0.00 | 0.00 | 100 | 1018.1 |
| 20260506084043 | 17 | 77 | 0.0 | 0.0 | 0.00 | 0.00 | 0.00 | 100 | 1018.0 |
| 20260506083802 | 17 | 77 | 0.0 | 0.0 | 0.00 | 0.00 | 0.00 | 100 | 1018.1 |
| 20260506083643 | 17 | 77 | 0.0 | 0.0 | 0.00 | 0.00 | 0.00 | 100 | 1018.1 |
| 20260506083543 | 17 | 77 | 0.0 | 0.0 | 0.00 | 0.00 | 0.00 | 100 | 1018.1 |
| 20260506083132 | 17 | 77 | 0.0 | 0.0 | 0.00 | 0.00 | 0.00 | 100 | 1018.0 |
| 20260506083043 | 17 | 77 | 0.0 | 0.0 | 0.00 | 0.00 | 0.00 | 100 | 1018.0 |
| 20260506082718 | 17 | 77 | 0.0 | 0.0 | 0.00 | 0.00 | 0.00 | 100 | 1018.0 |
| 20260506082543 | 17 | 77 | 0.0 | 0.0 | 0.00 | 0.00 | 0.00 | 100 | 1018.0 |
| 20260506082043 | 17 | 77 | 0.0 | 0.0 | 0.00 | 0.00 | 0.00 | 100 | 1018.0 |
| 20260506081719 | 17 | 77 | 0.0 | 0.0 | 0.00 | 0.00 | 0.00 | 100 | 1017.9 |
| 20260506081709 | 17 | 77 | 0.0 | 0.0 | 0.00 | 0.00 | 0.00 | 100 | 1017.9 |
| 20260506081543 | 17 | 77 | 0.0 | 0.0 | 0.00 | 0.00 | 0.00 | 100 | 1017.9 |
| 20260506081043 | 17 | 77 | 0.0 | 0.0 | 0.00 | 0.00 | 0.00 | 100 | 1017.9 |
| 20260506080543 | 17 | 77 | 0.0 | 0.0 | 0.00 | 0.00 | 0.00 | 100 | 1018.0 |
| 20260506080126 | 18 | 85 | 0.0 | 1.6 | 0.00 | 0.00 | 0.00 | 100 | 1017.7 |
| 20260506073043 | 17 | 57 | 0.0 | 0.0 | 0.00 | 0.00 | 0.00 | 100 | 1018.1 |
| 20260506072943 | 18 | 57 | 0.0 | 0.0 | 0.00 | 0.00 | 0.00 | 100 | 1018.1 |
| 20260506072543 | 17 | 57 | 0.0 | 0.0 | 0.00 | 0.00 | 0.00 | 100 | 1018.0 |
| 20260506072043 | 18 | 57 | 0.0 | 0.0 | 0.00 | 0.00 | 0.00 | 100 | 1018.1 |
| 20260506071543 | 18 | 57 | 0.0 | 0.0 | 0.00 | 0.00 | 0.00 | 100 | 1018.1 |
| 20260506071201 | 18 | 57 | 0.0 | 0.0 | 0.00 | 0.00 | 0.00 | 100 | 1018.2 |
| 20260506071043 | 17 | 57 | 0.0 | 0.0 | 0.00 | 0.00 | 0.00 | 100 | 1018.1 |
| 20260506070543 | 18 | 57 | 0.0 | 0.0 | 0.00 | 0.00 | 0.00 | 100 | 1018.2 |
| 20260506062044 | 18 | 57 | 0.0 | 0.0 | 0.00 | 0.00 | 0.00 | 100 | 1018.4 |
| 20260506061630 | 18 | 57 | 0.0 | 0.0 | 0.00 | 0.00 | 0.00 | 100 | 1018.4 |
| 20260506061621 | 18 | 57 | 0.0 | 0.0 | 0.00 | 0.00 | 0.00 | 100 | 1018.5 |
| 20260506061544 | 18 | 57 | 0.0 | 0.0 | 0.00 | 0.00 | 0.00 | 100 | 1018.5 |
| 20260506061044 | 18 | 57 | 0.0 | 0.0 | 0.00 | 0.00 | 0.00 | 100 | 1018.4 |
| 20260506061004 | 18 | 57 | 0.0 | 0.0 | 0.00 | 0.00 | 0.00 | 100 | 1018.5 |
| 20260506060544 | 18 | 57 | 0.0 | 0.0 | 0.00 | 0.00 | 0.00 | 100 | 1018.5 |
| 20260506051044 | 20 | 67 | 0.0 | 1.6 | 0.00 | 0.00 | 0.00 | 100 | 1019.1 |
| 20260506050544 | 20 | 78 | 0.0 | 3.2 | 0.00 | 0.00 | 0.00 | 100 | 1019.1 |
| 20260506050253 | 20 | 91 | 0.0 | 0.0 | 0.00 | 0.00 | 0.00 | 100 | 1019.1 |
| 20260506045044 | 20 | 57 | 0.0 | 1.6 | 0.00 | 0.00 | 0.00 | 100 | 1019.2 |
| 20260506045037 | 20 | 97 | 1.6 | 1.6 | 0.00 | 0.00 | 0.00 | 100 | 1019.1 |
| 20260506044544 | 20 | 97 | 1.6 | 1.6 | 0.00 | 0.00 | 0.00 | 100 | 1019.1 |
| 20260506044252 | 21 | 90 | 1.6 | 3.2 | 0.00 | 0.00 | 0.00 | 100 | 1019.1 |
| 20260506044044 | 21 | 90 | 1.6 | 3.2 | 0.00 | 0.00 | 0.00 | 100 | 1019.1 |
| 20260506043717 | 21 | 87 | 1.6 | 4.8 | 0.00 | 0.00 | 0.00 | 100 | 1019.1 |
| 20260506043544 | 21 | 87 | 1.6 | 4.8 | 0.00 | 0.00 | 0.00 | 100 | 1019.1 |
| 20260506043133 | 21 | 132 | 3.2 | 4.8 | 0.00 | 0.00 | 0.00 | 100 | 1019.0 |
| 20260506043044 | 21 | 116 | 1.6 | 4.8 | 0.00 | 0.00 | 0.00 | 100 | 1019.1 |
| 20260506042544 | 21 | 132 | 3.2 | 4.8 | 0.00 | 0.00 | 0.00 | 100 | 1019.0 |
| 20260506042331 | 21 | 92 | 3.2 | 6.4 | 0.00 | 0.00 | 0.00 | 100 | 1019.0 |
| 20260506042044 | 21 | 139 | 4.8 | 6.4 | 0.00 | 0.00 | 0.00 | 100 | 1018.9 |
| 20260506041544 | 21 | 92 | 3.2 | 6.4 | 0.00 | 0.00 | 0.00 | 100 | 1019.0 |
| 20260506041139 | 21 | 119 | 4.8 | 8.0 | 0.00 | 0.00 | 0.00 | 100 | 1019.0 |
| 20260506041044 | 21 | 119 | 4.8 | 8.0 | 0.00 | 0.00 | 0.00 | 100 | 1019.0 |
| 20260506040716 | 21 | 102 | 3.2 | 4.8 | 0.00 | 0.00 | 0.00 | 100 | 1019.0 |
| 20260506040544 | 21 | 102 | 3.2 | 4.8 | 0.00 | 0.00 | 0.00 | 100 | 1019.0 |
| 20260506040204 | 21 | 123 | 1.6 | 4.8 | 0.00 | 0.00 | 0.00 | 100 | 1018.9 |
| 20260506040044 | 21 | 123 | 1.6 | 4.8 | 0.00 | 0.00 | 0.00 | 100 | 1018.9 |
| 20260506035804 | 22 | 95 | 3.2 | 6.4 | 0.00 | 0.00 | 0.00 | 100 | 1019.1 |
| 20260506035544 | 22 | 91 | 1.6 | 4.8 | 0.00 | 0.00 | 0.00 | 100 | 1019.0 |
| 20260506035044 | 22 | 95 | 3.2 | 6.4 | 0.00 | 0.00 | 0.00 | 100 | 1019.1 |
| 20260506034544 | 22 | 71 | 3.2 | 4.8 | 0.00 | 0.00 | 0.00 | 100 | 1019.1 |
| 20260506034044 | 22 | 111 | 3.2 | 4.8 | 0.00 | 0.00 | 0.00 | 100 | 1019.2 |
| 20260506033705 | 22 | 113 | 3.2 | 4.8 | 0.00 | 0.00 | 0.00 | 100 | 1019.1 |
| 20260506033544 | 22 | 80 | 4.8 | 4.8 | 0.00 | 0.00 | 0.00 | 100 | 1019.2 |
| 20260506033044 | 22 | 113 | 3.2 | 4.8 | 0.00 | 0.00 | 0.00 | 100 | 1019.1 |
| 20260506033008 | 22 | 149 | 4.8 | 8.0 | 0.00 | 0.00 | 0.00 | 100 | 1019.2 |
| 20260506032544 | 22 | 149 | 4.8 | 8.0 | 0.00 | 0.00 | 0.00 | 100 | 1019.2 |
| 20260506032234 | 23 | 92 | 4.8 | 8.0 | 0.00 | 0.00 | 0.00 | 100 | 1019.1 |
| 20260506032044 | 23 | 150 | 3.2 | 8.0 | 0.00 | 0.00 | 0.00 | 100 | 1019.1 |
| 20260506031544 | 23 | 92 | 4.8 | 8.0 | 0.00 | 0.00 | 0.00 | 100 | 1019.1 |
| 20260506031210 | 23 | 104 | 3.2 | 8.0 | 0.00 | 0.00 | 0.00 | 100 | 1019.1 |
| 20260506031044 | 23 | 104 | 3.2 | 8.0 | 0.00 | 0.00 | 0.00 | 100 | 1019.1 |
| 20260506030702 | 23 | 95 | 6.4 | 8.0 | 0.00 | 0.00 | 0.00 | 100 | 1019.0 |
| 20260506030544 | 23 | 95 | 6.4 | 8.0 | 0.00 | 0.00 | 0.00 | 100 | 1019.0 |
| 20260506030420 | 23 | 125 | 6.4 | 8.0 | 0.00 | 0.00 | 0.00 | 100 | 1019.0 |
| 20260506030044 | 23 | 125 | 6.4 | 8.0 | 0.00 | 0.00 | 0.00 | 100 | 1019.0 |
| 20260506025548 | 23 | 59 | 6.4 | 9.7 | 0.00 | 0.00 | 0.00 | 100 | 1019.0 |
| 20260506025544 | 23 | 129 | 6.4 | 9.7 | 0.00 | 0.00 | 0.00 | 100 | 1019.0 |
| 20260506025134 | 23 | 120 | 3.2 | 9.7 | 0.00 | 0.00 | 0.00 | 100 | 1018.9 |
| 20260506025044 | 23 | 59 | 6.4 | 9.7 | 0.00 | 0.00 | 0.00 | 100 | 1019.0 |
| 20260506024545 | 23 | 120 | 3.2 | 9.7 | 0.00 | 0.00 | 0.00 | 100 | 1018.9 |
| 20260506024531 | 23 | 120 | 4.8 | 11.3 | 0.00 | 0.00 | 0.00 | 100 | 1018.9 |
| 20260506024045 | 23 | 120 | 4.8 | 11.3 | 0.00 | 0.00 | 0.00 | 100 | 1018.9 |
| 20260506024031 | 23 | 46 | 1.6 | 14.5 | 0.00 | 0.00 | 0.00 | 100 | 1018.8 |
| 20260506023545 | 23 | 46 | 1.6 | 14.5 | 0.00 | 0.00 | 0.00 | 100 | 1018.8 |
| 20260506023045 | 23 | 82 | 3.2 | 6.4 | 0.00 | 0.00 | 0.00 | 100 | 1018.8 |
| 20260506022631 | 23 | 109 | 3.2 | 12.9 | 0.00 | 0.00 | 0.00 | 100 | 1018.7 |
| 20260506022545 | 23 | 137 | 6.4 | 8.0 | 0.00 | 0.00 | 0.00 | 100 | 1018.7 |
| 20260506022045 | 23 | 109 | 3.2 | 12.9 | 0.00 | 0.00 | 0.00 | 100 | 1018.7 |
| 20260506021740 | 23 | 106 | 9.7 | 11.3 | 0.00 | 0.00 | 0.00 | 100 | 1018.6 |
| 20260506021545 | 23 | 106 | 9.7 | 11.3 | 0.00 | 0.00 | 0.00 | 100 | 1018.6 |
| 20260506021045 | 23 | 2 | 0.0 | 4.8 | 0.00 | 0.00 | 0.00 | 100 | 1018.6 |
| 20260506021037 | 23 | 97 | 4.8 | 9.7 | 0.00 | 0.00 | 0.00 | 100 | 1018.7 |
| 20260506020629 | 23 | 97 | 4.8 | 9.7 | 0.00 | 0.00 | 0.00 | 100 | 1018.7 |
| 20260506020545 | 23 | 97 | 4.8 | 9.7 | 0.00 | 0.00 | 0.00 | 100 | 1018.7 |
| 20260506020045 | 22 | 130 | 6.4 | 9.7 | 0.00 | 0.00 | 0.00 | 100 | 1018.6 |
| 20260506015933 | 23 | 19 | 0.0 | 6.4 | 0.00 | 0.00 | 0.00 | 100 | 1018.5 |
| 20260506015545 | 23 | 19 | 0.0 | 6.4 | 0.00 | 0.00 | 0.00 | 100 | 1018.5 |
| 20260506015503 | 22 | 26 | 1.6 | 3.2 | 0.00 | 0.00 | 0.00 | 100 | 1018.5 |
| 20260506015045 | 22 | 26 | 1.6 | 3.2 | 0.00 | 0.00 | 0.00 | 100 | 1018.5 |
| 20260506014545 | 23 | 98 | 3.2 | 4.8 | 0.00 | 0.00 | 0.00 | 100 | 1018.4 |
| 20260506014533 | 23 | 109 | 3.2 | 4.8 | 0.00 | 0.00 | 0.00 | 100 | 1018.3 |
| 20260506014045 | 23 | 109 | 3.2 | 4.8 | 0.00 | 0.00 | 0.00 | 100 | 1018.3 |
| 20260506013828 | 23 | 19 | 1.6 | 8.0 | 0.00 | 0.00 | 0.00 | 100 | 1018.3 |
| 20260506013545 | 23 | 19 | 1.6 | 8.0 | 0.00 | 0.00 | 0.00 | 100 | 1018.3 |
| 20260506013504 | 23 | 333 | 4.8 | 12.9 | 0.00 | 0.00 | 0.00 | 100 | 1018.1 |
| 20260506013413 | 23 | 358 | 6.4 | 8.0 | 0.00 | 0.00 | 0.00 | 100 | 1018.3 |
| 20260506013141 | 23 | 358 | 6.4 | 8.0 | 0.00 | 0.00 | 0.00 | 100 | 1018.3 |
| 20260506013045 | 23 | 358 | 6.4 | 8.0 | 0.00 | 0.00 | 0.00 | 100 | 1018.3 |
| 20260506013017 | 23 | 333 | 4.8 | 12.9 | 0.00 | 0.00 | 0.00 | 100 | 1018.1 |
| 20260506012545 | 23 | 333 | 4.8 | 12.9 | 0.00 | 0.00 | 0.00 | 100 | 1018.1 |
| 20260506012045 | 23 | 330 | 8.0 | 9.7 | 0.00 | 0.00 | 0.00 | 100 | 1018.2 |
| 20260506012042 | 23 | 350 | 6.4 | 6.4 | 0.00 | 0.00 | 0.00 | 100 | 1018.1 |
| 20260506011758 | 23 | 358 | 4.8 | 6.4 | 0.00 | 0.00 | 0.00 | 100 | 1018.2 |
| 20260506011551 | 23 | 350 | 6.4 | 6.4 | 0.00 | 0.00 | 0.00 | 100 | 1018.1 |
| 20260506011545 | 23 | 358 | 4.8 | 6.4 | 0.00 | 0.00 | 0.00 | 100 | 1018.2 |
| 20260506011045 | 23 | 350 | 6.4 | 6.4 | 0.00 | 0.00 | 0.00 | 100 | 1018.1 |
| 20260506010800 | 23 | 4 | 0.0 | 0.0 | 0.00 | 0.00 | 0.00 | 100 | 1018.0 |
| 20260506010545 | 23 | 4 | 0.0 | 0.0 | 0.00 | 0.00 | 0.00 | 100 | 1018.0 |
| 20260506010045 | 24 | 4 | 0.0 | 1.6 | 0.00 | 0.00 | 0.00 | 100 | 1018.0 |
| 20260506005900 | 24 | 333 | 0.0 | 3.2 | 0.00 | 0.00 | 0.00 | 100 | 1017.9 |
| 20260506005747 | 24 | 333 | 0.0 | 3.2 | 0.00 | 0.00 | 0.00 | 100 | 1017.9 |
| 20260506005545 | 24 | 333 | 0.0 | 3.2 | 0.00 | 0.00 | 0.00 | 100 | 1017.9 |
| 20260506005530 | 24 | 14 | 0.0 | 3.2 | 0.00 | 0.00 | 0.00 | 100 | 1017.8 |
| 20260506005239 | 25 | 26 | 0.0 | 6.4 | 0.00 | 0.00 | 0.00 | 100 | 1017.6 |
| 20260506005045 | 24 | 14 | 0.0 | 3.2 | 0.00 | 0.00 | 0.00 | 100 | 1017.8 |
| 20260506005032 | 24 | 2 | 0.0 | 0.0 | 0.00 | 0.00 | 0.00 | 100 | 1017.9 |
| 20260506004545 | 24 | 2 | 0.0 | 0.0 | 0.00 | 0.00 | 0.00 | 100 | 1017.9 |
| 20260506004510 | 25 | 2 | 0.0 | 0.0 | 0.00 | 0.00 | 0.00 | 100 | 1017.8 |
| 20260506004045 | 25 | 2 | 0.0 | 0.0 | 0.00 | 0.00 | 0.00 | 100 | 1017.8 |
| 20260506003816 | 25 | 2 | 0.0 | 0.0 | 0.00 | 0.00 | 0.00 | 100 | 1017.7 |
| 20260506003545 | 25 | 2 | 0.0 | 0.0 | 0.00 | 0.00 | 0.00 | 100 | 1017.7 |
| 20260506003045 | 25 | 2 | 0.0 | 3.2 | 0.00 | 0.00 | 0.00 | 100 | 1017.7 |
| 20260506002940 | 25 | 26 | 0.0 | 6.4 | 0.00 | 0.00 | 0.00 | 100 | 1017.6 |
| 20260506002545 | 25 | 26 | 0.0 | 6.4 | 0.00 | 0.00 | 0.00 | 100 | 1017.6 |
| 20260506002404 | 25 | 1 | 0.0 | 1.6 | 0.00 | 0.00 | 0.00 | 100 | 1017.6 |
| 20260506002045 | 25 | 1 | 0.0 | 1.6 | 0.00 | 0.00 | 0.00 | 100 | 1017.6 |
| 20260506001824 | 25 | 315 | 1.6 | 9.7 | 0.00 | 0.00 | 0.00 | 100 | 1017.3 |
| 20260506001545 | 25 | 337 | 0.0 | 6.4 | 0.00 | 0.00 | 0.00 | 100 | 1017.4 |
| 20260506001045 | 25 | 315 | 1.6 | 9.7 | 0.00 | 0.00 | 0.00 | 100 | 1017.3 |
| 20260506000720 | 26 | 7 | 6.4 | 11.3 | 0.00 | 0.00 | 0.00 | 100 | 1017.0 |
| 20260506000545 | 25 | 337 | 4.8 | 8.0 | 0.00 | 0.00 | 0.00 | 100 | 1017.2 |
| 20260506000045 | 26 | 319 | 3.2 | 11.3 | 0.00 | 0.00 | 0.00 | 100 | 1017.0 |
| 20260505235748 | 26 | 336 | 3.2 | 11.3 | 0.00 | 0.00 | 0.00 | 100 | 1017.0 |
| 20260505235545 | 26 | 7 | 6.4 | 11.3 | 0.00 | 0.00 | 0.00 | 100 | 1017.0 |
| 20260505235310 | 26 | 336 | 3.2 | 11.3 | 0.00 | 0.00 | 0.00 | 100 | 1017.0 |
| 20260505235045 | 26 | 336 | 3.2 | 11.3 | 0.00 | 0.00 | 0.00 | 100 | 1017.0 |
| 20260505234923 | 26 | 358 | 4.8 | 11.3 | 0.00 | 0.00 | 0.00 | 100 | 1016.9 |
| 20260505234812 | 26 | 358 | 4.8 | 11.3 | 0.00 | 0.00 | 0.00 | 100 | 1016.9 |
| 20260505234545 | 26 | 358 | 4.8 | 11.3 | 0.00 | 0.00 | 0.00 | 100 | 1016.9 |
| 20260505234529 | 26 | 350 | 6.4 | 14.5 | 0.00 | 0.00 | 0.00 | 100 | 1016.7 |
| 20260505234457 | 26 | 350 | 6.4 | 14.5 | 0.00 | 0.00 | 0.00 | 100 | 1016.7 |
| 20260505234045 | 26 | 350 | 6.4 | 14.5 | 0.00 | 0.00 | 0.00 | 100 | 1016.7 |
| 20260505233952 | 27 | 2 | 0.0 | 11.3 | 0.00 | 0.00 | 0.00 | 100 | 1016.7 |
| 20260505233545 | 27 | 2 | 0.0 | 11.3 | 0.00 | 0.00 | 0.00 | 100 | 1016.7 |
| 20260505233457 | 27 | 1 | 1.6 | 11.3 | 0.00 | 0.00 | 0.00 | 100 | 1016.8 |
| 20260505233329 | 27 | 1 | 1.6 | 11.3 | 0.00 | 0.00 | 0.00 | 100 | 1016.8 |
| 20260505233045 | 27 | 1 | 1.6 | 11.3 | 0.00 | 0.00 | 0.00 | 100 | 1016.8 |
| 20260505233026 | 27 | 7 | 6.4 | 17.7 | 0.00 | 0.00 | 0.00 | 100 | 1016.7 |
| 20260505232838 | 27 | 7 | 6.4 | 17.7 | 0.00 | 0.00 | 0.00 | 100 | 1016.7 |
| 20260505232545 | 27 | 7 | 6.4 | 17.7 | 0.00 | 0.00 | 0.00 | 100 | 1016.7 |
| 20260505232317 | 28 | 337 | 9.7 | 17.7 | 0.00 | 0.00 | 0.00 | 100 | 1016.7 |
| 20260505232045 | 28 | 337 | 9.7 | 17.7 | 0.00 | 0.00 | 0.00 | 100 | 1016.7 |
| 20260505231933 | 28 | 307 | 12.9 | 19.3 | 0.00 | 0.00 | 0.00 | 100 | 1016.6 |
| 20260505231858 | 28 | 307 | 12.9 | 19.3 | 0.00 | 0.00 | 0.00 | 100 | 1016.6 |
| 20260505231545 | 28 | 307 | 12.9 | 19.3 | 0.00 | 0.00 | 0.00 | 100 | 1016.6 |
| 20260505231120 | 28 | 14 | 6.4 | 17.7 | 0.00 | 0.00 | 0.00 | 100 | 1016.6 |
| 20260505231045 | 28 | 14 | 6.4 | 17.7 | 0.00 | 0.00 | 0.00 | 100 | 1016.6 |
| 20260505230817 | 28 | 347 | 8.0 | 14.5 | 0.00 | 0.00 | 0.00 | 100 | 1016.6 |
| 20260505230545 | 28 | 347 | 8.0 | 14.5 | 0.00 | 0.00 | 0.00 | 100 | 1016.6 |
| 20260505230228 | 28 | 284 | 4.8 | 16.1 | 0.00 | 0.00 | 0.00 | 100 | 1016.6 |
| 20260505230045 | 28 | 284 | 4.8 | 16.1 | 0.00 | 0.00 | 0.00 | 100 | 1016.6 |
| 20260505230035 | 28 | 289 | 4.8 | 14.5 | 0.00 | 0.00 | 0.00 | 100 | 1016.6 |
| 20260505225728 | 28 | 289 | 4.8 | 14.5 | 0.00 | 0.00 | 0.00 | 100 | 1016.6 |
| 20260505225545 | 28 | 289 | 4.8 | 14.5 | 0.00 | 0.00 | 0.00 | 100 | 1016.6 |
| 20260505225045 | 28 | 271 | 4.8 | 12.9 | 0.00 | 0.00 | 0.00 | 100 | 1016.5 |
| 20260505224935 | 28 | 264 | 4.8 | 16.1 | 0.00 | 0.00 | 0.00 | 100 | 1016.6 |
| 20260505224546 | 28 | 264 | 4.8 | 16.1 | 0.00 | 0.00 | 0.00 | 100 | 1016.6 |
| 20260505224046 | 28 | 257 | 6.4 | 17.7 | 0.00 | 0.00 | 0.00 | 100 | 1016.5 |
| 20260505224018 | 28 | 286 | 3.2 | 14.5 | 0.00 | 0.00 | 0.00 | 100 | 1016.5 |
| 20260505223546 | 28 | 286 | 3.2 | 14.5 | 0.00 | 0.00 | 0.00 | 100 | 1016.5 |
| 20260505223046 | 28 | 312 | 8.0 | 17.7 | 0.00 | 0.00 | 0.00 | 100 | 1016.5 |
| 20260505222814 | 28 | 293 | 11.3 | 17.7 | 0.00 | 0.00 | 0.00 | 100 | 1016.4 |
| 20260505222546 | 28 | 293 | 11.3 | 17.7 | 0.00 | 0.00 | 0.00 | 100 | 1016.4 |
| 20260505222520 | 28 | 278 | 9.7 | 17.7 | 0.00 | 0.00 | 0.00 | 100 | 1016.3 |
| 20260505222046 | 28 | 278 | 9.7 | 17.7 | 0.00 | 0.00 | 0.00 | 100 | 1016.3 |
| 20260505221810 | 28 | 323 | 4.8 | 20.9 | 0.00 | 0.00 | 0.00 | 100 | 1016.3 |
| 20260505221546 | 28 | 323 | 4.8 | 20.9 | 0.00 | 0.00 | 0.00 | 100 | 1016.3 |
| 20260505221301 | 28 | 284 | 6.4 | 17.7 | 0.00 | 0.00 | 0.00 | 100 | 1016.4 |
| 20260505221046 | 28 | 284 | 6.4 | 17.7 | 0.00 | 0.00 | 0.00 | 100 | 1016.4 |
| 20260505220546 | 29 | 278 | 14.5 | 17.7 | 0.00 | 0.00 | 0.00 | 100 | 1016.4 |
| 20260505220046 | 29 | 289 | 11.3 | 19.3 | 0.00 | 0.00 | 0.00 | 100 | 1016.3 |
| 20260505215812 | 30 | 267 | 9.7 | 17.7 | 0.00 | 0.00 | 0.00 | 100 | 1016.3 |
| 20260505215546 | 30 | 267 | 9.7 | 17.7 | 0.00 | 0.00 | 0.00 | 100 | 1016.3 |
| 20260505215046 | 30 | 300 | 9.7 | 19.3 | 0.00 | 0.00 | 0.00 | 100 | 1016.3 |
| 20260505214744 | 30 | 23 | 3.2 | 11.3 | 0.00 | 0.00 | 0.00 | 100 | 1016.1 |
| 20260505214546 | 30 | 282 | 4.8 | 20.9 | 0.00 | 0.00 | 0.00 | 100 | 1016.2 |
| 20260505214046 | 30 | 264 | 9.7 | 14.5 | 0.00 | 0.00 | 0.00 | 100 | 1016.2 |
| 20260505213642 | 31 | 309 | 9.7 | 16.1 | 0.00 | 0.00 | 0.00 | 100 | 1016.1 |
| 20260505213546 | 31 | 309 | 9.7 | 16.1 | 0.00 | 0.00 | 0.00 | 100 | 1016.1 |
| 20260505213046 | 30 | 23 | 3.2 | 11.3 | 0.00 | 0.00 | 0.00 | 100 | 1016.1 |
| 20260505213002 | 31 | 85 | 4.8 | 8.0 | 0.00 | 0.00 | 0.00 | 100 | 1016.1 |
| 20260505212546 | 30 | 262 | 6.4 | 11.3 | 0.00 | 0.00 | 0.00 | 100 | 1016.0 |
| 20260505212311 | 31 | 310 | 0.0 | 8.0 | 0.00 | 0.00 | 0.00 | 100 | 1016.1 |
| 20260505212046 | 31 | 310 | 0.0 | 8.0 | 0.00 | 0.00 | 0.00 | 100 | 1016.1 |
| 20260505211546 | 31 | 146 | 0.0 | 8.0 | 0.00 | 0.00 | 0.00 | 100 | 1016.1 |
| 20260505211046 | 31 | 85 | 4.8 | 8.0 | 0.00 | 0.00 | 0.00 | 100 | 1016.1 |
| 20260505210921 | 33 | 37 | 0.0 | 0.0 | 0.00 | 0.00 | 0.00 | 100 | 1016.1 |
| 20260505210546 | 33 | 37 | 0.0 | 0.0 | 0.00 | 0.00 | 0.00 | 100 | 1016.1 |
| 20260505210046 | 32 | 37 | 0.0 | 4.8 | 0.00 | 0.00 | 0.00 | 100 | 1016.1 |
| 20260505205952 | 32 | 11 | 0.0 | 8.0 | 0.00 | 0.00 | 0.00 | 100 | 1016.0 |
| 20260505205546 | 32 | 11 | 0.0 | 8.0 | 0.00 | 0.00 | 0.00 | 100 | 1016.0 |
| 20260505205110 | 32 | 165 | 3.2 | 4.8 | 0.00 | 0.00 | 0.00 | 100 | 1016.1 |
| 20260505205046 | 32 | 316 | 3.2 | 4.8 | 0.00 | 0.00 | 0.00 | 100 | 1016.1 |
| 20260505204546 | 31 | 74 | 3.2 | 9.7 | 0.00 | 0.00 | 0.00 | 100 | 1016.1 |
| 20260505204137 | 32 | 165 | 3.2 | 4.8 | 0.00 | 0.00 | 0.00 | 100 | 1016.1 |
| 20260505204046 | 32 | 165 | 3.2 | 4.8 | 0.00 | 0.00 | 0.00 | 100 | 1016.1 |
| 20260505203804 | 32 | 7 | 0.0 | 3.2 | 0.00 | 0.00 | 0.00 | 100 | 1016.2 |
| 20260505203546 | 32 | 7 | 0.0 | 3.2 | 0.00 | 0.00 | 0.00 | 100 | 1016.2 |
| 20260505203217 | 32 | 40 | 0.0 | 3.2 | 0.00 | 0.00 | 0.00 | 100 | 1016.2 |
| 20260505203046 | 32 | 40 | 0.0 | 3.2 | 0.00 | 0.00 | 0.00 | 100 | 1016.2 |
| 20260505202546 | 31 | 43 | 0.0 | 11.3 | 0.00 | 0.00 | 0.00 | 100 | 1016.3 |
| 20260505202204 | 31 | 116 | 6.4 | 9.7 | 0.00 | 0.00 | 0.00 | 100 | 1016.4 |
| 20260505202132 | 31 | 116 | 6.4 | 9.7 | 0.00 | 0.00 | 0.00 | 100 | 1016.4 |
| 20260505202046 | 31 | 116 | 6.4 | 9.7 | 0.00 | 0.00 | 0.00 | 100 | 1016.4 |
| 20260505201640 | 31 | 88 | 6.4 | 9.7 | 0.00 | 0.00 | 0.00 | 100 | 1016.4 |
| 20260505201546 | 31 | 88 | 6.4 | 9.7 | 0.00 | 0.00 | 0.00 | 100 | 1016.4 |
| 20260505201147 | 31 | 99 | 0.0 | 11.3 | 0.00 | 0.00 | 0.00 | 100 | 1016.5 |
| 20260505201046 | 31 | 99 | 0.0 | 11.3 | 0.00 | 0.00 | 0.00 | 100 | 1016.5 |
| 20260505200546 | 31 | 164 | 9.7 | 11.3 | 0.00 | 0.00 | 0.00 | 100 | 1016.5 |
| 20260505200046 | 31 | 82 | 0.0 | 14.5 | 0.00 | 0.00 | 0.00 | 100 | 1016.5 |
| 20260505195959 | 31 | 122 | 6.4 | 12.9 | 0.00 | 0.00 | 0.00 | 100 | 1016.6 |
| 20260505195710 | 31 | 158 | 9.7 | 11.3 | 0.00 | 0.00 | 0.00 | 100 | 1016.5 |
| 20260505195546 | 31 | 158 | 9.7 | 11.3 | 0.00 | 0.00 | 0.00 | 100 | 1016.5 |
| 20260505195207 | 31 | 272 | 0.0 | 12.9 | 0.00 | 0.00 | 0.00 | 100 | 1016.4 |
| 20260505195118 | 31 | 272 | 0.0 | 12.9 | 0.00 | 0.00 | 0.00 | 100 | 1016.4 |
| 20260505195046 | 31 | 272 | 0.0 | 12.9 | 0.00 | 0.00 | 0.00 | 100 | 1016.4 |
| 20260505194546 | 31 | 122 | 6.4 | 12.9 | 0.00 | 0.00 | 0.00 | 100 | 1016.6 |
| 20260505194151 | 31 | 154 | 6.4 | 11.3 | 0.00 | 0.00 | 0.00 | 100 | 1016.6 |
| 20260505194046 | 31 | 154 | 6.4 | 11.3 | 0.00 | 0.00 | 0.00 | 100 | 1016.6 |
| 20260505193651 | 31 | 102 | 3.2 | 9.7 | 0.00 | 0.00 | 0.00 | 100 | 1016.6 |
| 20260505193546 | 31 | 102 | 3.2 | 9.7 | 0.00 | 0.00 | 0.00 | 100 | 1016.6 |
| 20260505193156 | 31 | 46 | 0.0 | 12.9 | 0.00 | 0.00 | 0.00 | 100 | 1016.6 |
| 20260505193136 | 31 | 22 | 8.0 | 14.5 | 0.00 | 0.00 | 0.00 | 100 | 1016.6 |
| 20260505193046 | 31 | 46 | 0.0 | 12.9 | 0.00 | 0.00 | 0.00 | 100 | 1016.6 |
| 20260505192546 | 31 | 22 | 8.0 | 14.5 | 0.00 | 0.00 | 0.00 | 100 | 1016.6 |
| 20260505192506 | 31 | 78 | 0.0 | 12.9 | 0.00 | 0.00 | 0.00 | 100 | 1016.7 |
| 20260505192144 | 31 | 216 | 0.0 | 9.7 | 0.00 | 0.00 | 0.00 | 100 | 1016.6 |
| 20260505192046 | 31 | 216 | 0.0 | 9.7 | 0.00 | 0.00 | 0.00 | 100 | 1016.6 |
| 20260505191642 | 31 | 78 | 0.0 | 12.9 | 0.00 | 0.00 | 0.00 | 100 | 1016.7 |
| 20260505191546 | 31 | 78 | 0.0 | 12.9 | 0.00 | 0.00 | 0.00 | 100 | 1016.7 |
| 20260505191314 | 31 | 74 | 4.8 | 12.9 | 0.00 | 0.00 | 0.00 | 100 | 1016.9 |
| 20260505191202 | 31 | 74 | 4.8 | 12.9 | 0.00 | 0.00 | 0.00 | 100 | 1016.9 |
| 20260505191046 | 31 | 74 | 4.8 | 12.9 | 0.00 | 0.00 | 0.00 | 100 | 1016.9 |
| 20260505190715 | 31 | 227 | 1.6 | 12.9 | 0.00 | 0.00 | 0.00 | 100 | 1016.9 |
| 20260505190546 | 31 | 227 | 1.6 | 12.9 | 0.00 | 0.00 | 0.00 | 100 | 1016.9 |
| 20260505190207 | 31 | 150 | 0.0 | 4.8 | 0.00 | 0.00 | 0.00 | 100 | 1016.9 |
| 20260505190046 | 31 | 150 | 0.0 | 4.8 | 0.00 | 0.00 | 0.00 | 100 | 1016.9 |
| 20260505185819 | 31 | 149 | 4.8 | 14.5 | 0.00 | 0.00 | 0.00 | 100 | 1016.9 |
| 20260505185547 | 31 | 149 | 4.8 | 14.5 | 0.00 | 0.00 | 0.00 | 100 | 1016.9 |
| 20260505185142 | 32 | 336 | 0.0 | 11.3 | 0.00 | 0.00 | 0.00 | 100 | 1016.9 |
| 20260505185047 | 32 | 336 | 0.0 | 11.3 | 0.00 | 0.00 | 0.00 | 100 | 1016.9 |
| 20260505184715 | 30 | 25 | 1.6 | 12.9 | 0.00 | 0.00 | 0.00 | 100 | 1017.0 |
| 20260505184547 | 30 | 25 | 1.6 | 12.9 | 0.00 | 0.00 | 0.00 | 100 | 1017.0 |
| 20260505184047 | 31 | 88 | 6.4 | 12.9 | 0.00 | 0.00 | 0.00 | 100 | 1017.1 |
| 20260505183651 | 31 | 129 | 0.0 | 12.9 | 0.00 | 0.00 | 0.00 | 100 | 1017.1 |
| 20260505183628 | 31 | 104 | 8.0 | 11.3 | 0.00 | 0.00 | 0.00 | 100 | 1017.1 |
| 20260505183547 | 31 | 129 | 0.0 | 12.9 | 0.00 | 0.00 | 0.00 | 100 | 1017.1 |
| 20260505183215 | 31 | 104 | 8.0 | 11.3 | 0.00 | 0.00 | 0.00 | 100 | 1017.1 |
| 20260505183047 | 31 | 104 | 8.0 | 11.3 | 0.00 | 0.00 | 0.00 | 100 | 1017.1 |
| 20260505182717 | 30 | 123 | 6.4 | 14.5 | 0.00 | 0.00 | 0.00 | 100 | 1017.2 |
| 20260505182547 | 30 | 123 | 6.4 | 14.5 | 0.00 | 0.00 | 0.00 | 100 | 1017.2 |
| 20260505182215 | 30 | 91 | 8.0 | 14.5 | 0.00 | 0.00 | 0.00 | 100 | 1017.4 |
| 20260505182047 | 30 | 91 | 8.0 | 14.5 | 0.00 | 0.00 | 0.00 | 100 | 1017.4 |
| 20260505181643 | 30 | 92 | 3.2 | 12.9 | 0.00 | 0.00 | 0.00 | 100 | 1017.5 |
| 20260505181547 | 30 | 92 | 3.2 | 12.9 | 0.00 | 0.00 | 0.00 | 100 | 1017.5 |
| 20260505181239 | 31 | 33 | 0.0 | 8.0 | 0.00 | 0.00 | 0.00 | 100 | 1017.5 |
| 20260505181047 | 31 | 33 | 0.0 | 8.0 | 0.00 | 0.00 | 0.00 | 100 | 1017.5 |
| 20260505180547 | 31 | 165 | 6.4 | 11.3 | 0.00 | 0.00 | 0.00 | 100 | 1017.5 |
| 20260505180317 | 31 | 146 | 8.0 | 14.5 | 0.00 | 0.00 | 0.00 | 100 | 1017.6 |
| 20260505180047 | 31 | 146 | 8.0 | 14.5 | 0.00 | 0.00 | 0.00 | 100 | 1017.6 |
| 20260505175547 | 31 | 32 | 1.6 | 9.7 | 0.00 | 0.00 | 0.00 | 100 | 1017.7 |
| 20260505175202 | 30 | 99 | 9.7 | 16.1 | 0.00 | 0.00 | 0.00 | 100 | 1017.7 |
| 20260505175047 | 30 | 99 | 9.7 | 16.1 | 0.00 | 0.00 | 0.00 | 100 | 1017.7 |
| 20260505174811 | 30 | 61 | 3.2 | 14.5 | 0.00 | 0.00 | 0.00 | 100 | 1017.6 |
| 20260505174547 | 30 | 61 | 3.2 | 14.5 | 0.00 | 0.00 | 0.00 | 100 | 1017.6 |
| 20260505174321 | 30 | 136 | 9.7 | 12.9 | 0.00 | 0.00 | 0.00 | 100 | 1017.8 |
| 20260505174047 | 30 | 136 | 9.7 | 12.9 | 0.00 | 0.00 | 0.00 | 100 | 1017.8 |
| 20260505173547 | 30 | 98 | 4.8 | 12.9 | 0.00 | 0.00 | 0.00 | 100 | 1017.9 |
| 20260505173217 | 30 | 161 | 8.0 | 12.9 | 0.00 | 0.00 | 0.00 | 100 | 1017.9 |
| 20260505173047 | 30 | 161 | 8.0 | 12.9 | 0.00 | 0.00 | 0.00 | 100 | 1017.9 |
| 20260505172547 | 31 | 95 | 6.4 | 12.9 | 0.00 | 0.00 | 0.00 | 100 | 1018.0 |
| 20260505172147 | 29 | 175 | 1.6 | 8.0 | 0.00 | 0.00 | 0.00 | 100 | 1018.0 |
| 20260505172047 | 29 | 175 | 1.6 | 8.0 | 0.00 | 0.00 | 0.00 | 100 | 1018.0 |
| 20260505171643 | 30 | 42 | 0.0 | 8.0 | 0.00 | 0.00 | 0.00 | 100 | 1018.1 |
| 20260505171547 | 30 | 42 | 0.0 | 8.0 | 0.00 | 0.00 | 0.00 | 100 | 1018.1 |
| 20260505171203 | 28 | 85 | 3.2 | 9.7 | 0.00 | 0.00 | 0.00 | 100 | 1018.2 |
| 20260505171047 | 28 | 85 | 3.2 | 9.7 | 0.00 | 0.00 | 0.00 | 100 | 1018.2 |
| 20260505170547 | 28 | 84 | 4.8 | 12.9 | 0.00 | 0.00 | 0.00 | 100 | 1018.2 |
| 20260505170047 | 28 | 74 | 6.4 | 12.9 | 0.00 | 0.00 | 0.00 | 100 | 1018.2 |
| 20260505165754 | 28 | 59 | 6.4 | 12.9 | 0.00 | 0.00 | 0.00 | 100 | 1018.1 |
| 20260505165547 | 28 | 59 | 6.4 | 12.9 | 0.00 | 0.00 | 0.00 | 100 | 1018.1 |
| 20260505165047 | 28 | 90 | 6.4 | 11.3 | 0.00 | 0.00 | 0.00 | 100 | 1018.2 |
| 20260505164713 | 28 | 111 | 3.2 | 12.9 | 0.00 | 0.00 | 0.00 | 100 | 1018.2 |
| 20260505164547 | 28 | 111 | 3.2 | 12.9 | 0.00 | 0.00 | 0.00 | 100 | 1018.2 |
| 20260505164208 | 29 | 123 | 1.6 | 17.7 | 0.00 | 0.00 | 0.00 | 100 | 1018.3 |
| 20260505164047 | 29 | 123 | 1.6 | 17.7 | 0.00 | 0.00 | 0.00 | 100 | 1018.3 |
| 20260505163810 | 28 | 142 | 11.3 | 11.3 | 0.00 | 0.00 | 0.00 | 100 | 1018.3 |
| 20260505163547 | 28 | 142 | 11.3 | 11.3 | 0.00 | 0.00 | 0.00 | 100 | 1018.3 |
| 20260505163332 | 29 | 187 | 3.2 | 17.7 | 0.00 | 0.00 | 0.00 | 100 | 1018.3 |
| 20260505163047 | 29 | 187 | 3.2 | 17.7 | 0.00 | 0.00 | 0.00 | 100 | 1018.3 |
| 20260505162657 | 28 | 81 | 16.1 | 17.7 | 0.00 | 0.00 | 0.00 | 100 | 1018.3 |
| 20260505162547 | 28 | 81 | 16.1 | 17.7 | 0.00 | 0.00 | 0.00 | 100 | 1018.3 |
| 20260505162047 | 30 | 80 | 6.4 | 11.3 | 0.00 | 0.00 | 0.00 | 100 | 1018.2 |
| 20260505161711 | 29 | 80 | 11.3 | 14.5 | 0.00 | 0.00 | 0.00 | 100 | 1018.2 |
| 20260505161547 | 29 | 80 | 11.3 | 14.5 | 0.00 | 0.00 | 0.00 | 100 | 1018.2 |
| 20260505161047 | 28 | 153 | 6.4 | 16.1 | 0.00 | 0.00 | 0.00 | 100 | 1018.3 |
| 20260505160657 | 27 | 112 | 0.0 | 17.7 | 0.00 | 0.00 | 0.00 | 100 | 1018.4 |
| 20260505160547 | 27 | 112 | 0.0 | 17.7 | 0.00 | 0.00 | 0.00 | 100 | 1018.4 |
| 20260505160257 | 28 | 87 | 11.3 | 17.7 | 0.00 | 0.00 | 0.00 | 100 | 1018.4 |
| 20260505153135 | 26 | 112 | 8.0 | 16.1 | 0.00 | 0.00 | 0.00 | 100 | 1018.6 |
| 20260505153047 | 26 | 112 | 8.0 | 16.1 | 0.00 | 0.00 | 0.00 | 100 | 1018.6 |
| 20260505152654 | 26 | 111 | 9.7 | 12.9 | 0.00 | 0.00 | 0.00 | 100 | 1018.7 |
| 20260505152547 | 26 | 111 | 9.7 | 12.9 | 0.00 | 0.00 | 0.00 | 100 | 1018.7 |
| 20260505152047 | 27 | 164 | 6.4 | 16.1 | 0.00 | 0.00 | 0.00 | 100 | 1018.6 |
| 20260505151712 | 27 | 150 | 11.3 | 17.7 | 0.00 | 0.00 | 0.00 | 100 | 1018.6 |
| 20260505151547 | 27 | 150 | 11.3 | 17.7 | 0.00 | 0.00 | 0.00 | 100 | 1018.6 |
| 20260505151238 | 27 | 90 | 9.7 | 19.3 | 0.00 | 0.00 | 0.00 | 100 | 1018.7 |
| 20260505151047 | 27 | 90 | 9.7 | 19.3 | 0.00 | 0.00 | 0.00 | 100 | 1018.7 |
| 20260505150654 | 28 | 82 | 9.7 | 17.7 | 0.00 | 0.00 | 0.00 | 100 | 1018.7 |
| 20260505150547 | 28 | 82 | 9.7 | 17.7 | 0.00 | 0.00 | 0.00 | 100 | 1018.7 |
| 20260505150310 | 27 | 81 | 9.7 | 20.9 | 0.00 | 0.00 | 0.00 | 100 | 1018.7 |
| 20260505140548 | 26 | 135 | 16.1 | 19.3 | 0.00 | 0.00 | 0.00 | 100 | 1018.1 |
| 20260505124832 | 23 | 120 | 6.4 | 14.5 | 0.00 | 0.00 | 0.00 | 100 | 1017.9 |
| 20260505124548 | 23 | 120 | 6.4 | 14.5 | 0.00 | 0.00 | 0.00 | 100 | 1017.9 |
| 20260505124048 | 23 | 81 | 4.8 | 12.9 | 0.00 | 0.00 | 0.00 | 100 | 1017.9 |
| 20260505123834 | 23 | 80 | 6.4 | 12.9 | 0.00 | 0.00 | 0.00 | 100 | 1017.9 |
| 20260505123634 | 22 | 91 | 6.4 | 11.3 | 0.00 | 0.00 | 0.00 | 100 | 1017.9 |
| 20260505123548 | 23 | 80 | 6.4 | 12.9 | 0.00 | 0.00 | 0.00 | 100 | 1017.9 |
| 20260505123513 | 22 | 91 | 6.4 | 11.3 | 0.00 | 0.00 | 0.00 | 100 | 1017.9 |
| 20260505123048 | 22 | 91 | 6.4 | 11.3 | 0.00 | 0.00 | 0.00 | 100 | 1017.9 |
| 20260505123022 | 22 | 94 | 9.7 | 11.3 | 0.00 | 0.00 | 0.00 | 100 | 1018.0 |
| 20260505122548 | 22 | 94 | 9.7 | 11.3 | 0.00 | 0.00 | 0.00 | 100 | 1018.0 |
| 20260505122048 | 22 | 149 | 9.7 | 12.9 | 0.00 | 0.00 | 0.00 | 100 | 1017.9 |
| 20260505121738 | 21 | 144 | 3.2 | 11.3 | 0.00 | 0.00 | 0.00 | 100 | 1017.7 |
| 20260505121548 | 22 | 118 | 4.8 | 9.7 | 0.00 | 0.00 | 0.00 | 100 | 1017.9 |
| 20260505121048 | 22 | 87 | 4.8 | 8.0 | 0.00 | 0.00 | 0.00 | 100 | 1017.9 |
| 20260505120617 | 21 | 144 | 3.2 | 11.3 | 0.00 | 0.00 | 0.00 | 100 | 1017.7 |
| 20260505120548 | 21 | 106 | 4.8 | 9.7 | 0.00 | 0.00 | 0.00 | 100 | 1017.8 |
| 20260505120048 | 21 | 144 | 3.2 | 11.3 | 0.00 | 0.00 | 0.00 | 100 | 1017.7 |
| 20260505115548 | 21 | 91 | 8.0 | 11.3 | 0.00 | 0.00 | 0.00 | 100 | 1017.7 |
| 20260505115048 | 21 | 109 | 4.8 | 9.7 | 0.00 | 0.00 | 0.00 | 100 | 1017.6 |
| 20260505114548 | 20 | 67 | 3.2 | 9.7 | 0.00 | 0.00 | 0.00 | 100 | 1017.5 |
| 20260505114229 | 20 | 71 | 4.8 | 8.0 | 0.00 | 0.00 | 0.00 | 100 | 1017.4 |
| 20260505114048 | 20 | 71 | 4.8 | 8.0 | 0.00 | 0.00 | 0.00 | 100 | 1017.4 |
| 20260505113548 | 20 | 97 | 1.6 | 6.4 | 0.00 | 0.00 | 0.00 | 100 | 1017.2 |
| 20260505113412 | 19 | 66 | 0.0 | 0.0 | 0.00 | 0.00 | 0.00 | 100 | 1017.1 |
| 20260505113136 | 18 | 66 | 0.0 | 0.0 | 0.00 | 0.00 | 0.00 | 100 | 1017.2 |
| 20260505113048 | 19 | 66 | 0.0 | 0.0 | 0.00 | 0.00 | 0.00 | 100 | 1017.1 |
| 20260505113040 | 18 | 85 | 0.0 | 4.8 | 0.00 | 0.00 | 0.00 | 100 | 1017.0 |
| 20260505112548 | 18 | 66 | 0.0 | 0.0 | 0.00 | 0.00 | 0.00 | 100 | 1017.2 |
| 20260505112059 | 18 | 75 | 0.0 | 6.4 | 0.00 | 0.00 | 0.00 | 100 | 1017.1 |
| 20260505112048 | 18 | 85 | 0.0 | 4.8 | 0.00 | 0.00 | 0.00 | 100 | 1017.0 |
| 20260505111852 | 18 | 75 | 0.0 | 6.4 | 0.00 | 0.00 | 0.00 | 100 | 1017.1 |
| 20260505111548 | 18 | 75 | 0.0 | 6.4 | 0.00 | 0.00 | 0.00 | 100 | 1017.1 |
| 20260505111048 | 18 | 88 | 3.2 | 8.0 | 0.00 | 0.00 | 0.00 | 100 | 1016.9 |
| 20260505110548 | 18 | 57 | 4.8 | 8.0 | 0.00 | 0.00 | 0.00 | 100 | 1017.0 |
| 20260505102215 | 17 | 47 | 0.0 | 4.8 | 0.00 | 0.00 | 0.00 | 100 | 1016.8 |
| 20260505102049 | 17 | 47 | 0.0 | 4.8 | 0.00 | 0.00 | 0.00 | 100 | 1016.8 |
| 20260505101828 | 17 | 70 | 0.0 | 0.0 | 0.00 | 0.00 | 0.00 | 100 | 1016.6 |
| 20260505101549 | 17 | 67 | 1.6 | 4.8 | 0.00 | 0.00 | 0.00 | 100 | 1016.7 |
| 20260505101049 | 17 | 70 | 0.0 | 0.0 | 0.00 | 0.00 | 0.00 | 100 | 1016.6 |
| 20260505101027 | 17 | 70 | 0.0 | 0.0 | 0.00 | 0.00 | 0.00 | 100 | 1016.5 |
| 20260505100821 | 17 | 70 | 0.0 | 0.0 | 0.00 | 0.00 | 0.00 | 100 | 1016.7 |
| 20260505100549 | 17 | 70 | 0.0 | 0.0 | 0.00 | 0.00 | 0.00 | 100 | 1016.7 |
| 20260505100049 | 17 | 70 | 0.0 | 0.0 | 0.00 | 0.00 | 0.00 | 100 | 1016.6 |
| 20260505095549 | 17 | 70 | 0.0 | 0.0 | 0.00 | 0.00 | 0.00 | 100 | 1016.5 |
| 20260505095455 | 17 | 70 | 0.0 | 0.0 | 0.00 | 0.00 | 0.00 | 100 | 1016.5 |
| 20260505095054 | 17 | 33 | 0.0 | 4.8 | 0.00 | 0.00 | 0.00 | 100 | 1016.5 |
| 20260505095049 | 17 | 70 | 0.0 | 0.0 | 0.00 | 0.00 | 0.00 | 100 | 1016.5 |
| 20260505094549 | 17 | 33 | 0.0 | 4.8 | 0.00 | 0.00 | 0.00 | 100 | 1016.5 |
| 20260505094049 | 17 | 68 | 3.2 | 4.8 | 0.00 | 0.00 | 0.00 | 100 | 1016.5 |
| 20260505093549 | 17 | 53 | 0.0 | 4.8 | 0.00 | 0.00 | 0.00 | 100 | 1016.4 |
| 20260505093255 | 17 | 95 | 1.6 | 3.2 | 0.00 | 0.00 | 0.00 | 100 | 1016.4 |
| 20260505093049 | 17 | 95 | 1.6 | 3.2 | 0.00 | 0.00 | 0.00 | 100 | 1016.4 |
| 20260505092549 | 17 | 95 | 1.6 | 3.2 | 0.00 | 0.00 | 0.00 | 100 | 1016.4 |
| 20260505092049 | 17 | 73 | 0.0 | 4.8 | 0.00 | 0.00 | 0.00 | 100 | 1016.4 |
| 20260505091549 | 17 | 59 | 0.0 | 4.8 | 0.00 | 0.00 | 0.00 | 100 | 1016.3 |
| 20260505091335 | 17 | 59 | 1.6 | 4.8 | 0.00 | 0.00 | 0.00 | 100 | 1016.2 |
| 20260505091049 | 17 | 59 | 1.6 | 4.8 | 0.00 | 0.00 | 0.00 | 100 | 1016.2 |
| 20260505090549 | 17 | 94 | 1.6 | 3.2 | 0.00 | 0.00 | 0.00 | 100 | 1016.2 |
| 20260505090509 | 17 | 111 | 1.6 | 4.8 | 0.00 | 0.00 | 0.00 | 100 | 1016.3 |
| 20260505090049 | 17 | 111 | 1.6 | 4.8 | 0.00 | 0.00 | 0.00 | 100 | 1016.3 |
| 20260505090010 | 17 | 46 | 0.0 | 3.2 | 0.00 | 0.00 | 0.00 | 100 | 1016.3 |
| 20260505085935 | 17 | 46 | 0.0 | 3.2 | 0.00 | 0.00 | 0.00 | 100 | 1016.3 |
| 20260505085549 | 17 | 46 | 0.0 | 3.2 | 0.00 | 0.00 | 0.00 | 100 | 1016.3 |
| 20260505085509 | 17 | 99 | 1.6 | 4.8 | 0.00 | 0.00 | 0.00 | 100 | 1016.2 |
| 20260505085059 | 18 | 81 | 0.0 | 1.6 | 0.00 | 0.00 | 0.00 | 100 | 1016.3 |
| 20260505085049 | 17 | 99 | 1.6 | 4.8 | 0.00 | 0.00 | 0.00 | 100 | 1016.2 |